E25RIV-1 Weather Reports


time (UTC)temp
F
wind
direction
speed
knots
gust
knots
rain 1hr
in
rain 24hr
in
rain mn
in
humidity
%
barometer
mb
20260509162313 83 0 0.0 0.0 0.00 0.00 0.00 99 1005.0
20260509161248 82 0 0.0 0.0 0.00 0.00 0.00 99 1005.0
20260509160225 83 0 0.0 0.0 0.00 0.00 0.00 99 1005.0
20260509155200 83 0 0.0 0.0 0.00 0.00 0.00 99 1005.0
20260509154136 83 0 0.0 0.0 0.00 0.00 0.00 99 1005.0
20260509153113 83 0 0.0 0.0 0.00 0.00 0.00 99 1005.0
20260509152048 83 0 0.0 0.0 0.00 0.00 0.00 99 1005.0
20260509151024 83 0 0.0 0.0 0.00 0.00 0.00 99 1005.0
20260509150000 83 0 0.0 0.0 0.00 0.00 0.00 99 1005.0
20260509144936 84 0 0.0 0.0 0.00 0.00 0.00 99 1004.0
20260509143913 84 0 0.0 0.0 0.00 0.00 0.00 99 1004.0
20260509142848 84 0 0.0 0.0 0.00 0.00 0.00 99 1004.0
20260509141825 84 0 0.0 0.0 0.00 0.00 0.00 99 1004.0
20260509140801 84 0 0.0 0.0 0.00 0.00 0.00 99 1004.0
20260509135737 84 0 0.0 0.0 0.00 0.00 0.00 99 1004.0
20260509134713 84 0 0.0 0.0 0.00 0.00 0.00 99 1004.0
20260509133649 85 0 0.0 0.0 0.00 0.00 0.00 99 1003.0
20260509132625 85 0 0.0 0.0 0.00 0.00 0.00 99 1003.0
20260509131601 86 0 0.0 0.0 0.00 0.00 0.00 99 1003.0
20260509130537 86 0 0.0 0.0 0.00 0.00 0.00 99 1003.0
20260509125513 86 0 0.0 0.0 0.00 0.00 0.00 99 1002.0
20260509124451 86 0 0.0 0.0 0.00 0.00 0.00 99 1002.0
20260509123425 86 0 0.0 0.0 0.00 0.00 0.00 99 1003.0
20260509122402 86 0 0.0 0.0 0.00 0.00 0.00 99 1002.0
20260509121354 86 0 0.0 0.0 0.00 0.00 0.00 99 1002.0
20260509120313 87 0 0.0 0.0 0.00 0.00 0.00 99 1002.0
20260509115249 87 0 0.0 0.0 0.00 0.00 0.00 99 1002.0
20260509114225 88 0 0.0 0.0 0.00 0.00 0.00 99 1001.0
20260509113201 88 0 0.0 0.0 0.00 0.00 0.00 99 1001.0
20260509112137 89 0 0.0 0.0 0.00 0.00 0.00 99 1001.0
20260509111113 90 0 0.0 0.0 0.00 0.00 0.00 99 1001.0
20260509110049 90 0 0.0 0.0 0.00 0.00 0.00 99 1001.0
20260509105025 91 0 0.0 0.0 0.00 0.00 0.00 99 1001.0
20260509104001 91 0 0.0 0.0 0.00 0.00 0.00 98 1000.0
20260509102937 91 0 0.0 0.0 0.00 0.00 0.00 96 999.0
20260509101919 90 0 0.0 0.0 0.00 0.00 0.00 99 1000.0
20260509100849 89 0 0.0 0.0 0.00 0.00 0.00 99 1000.0
20260509095825 87 0 0.0 0.0 0.00 0.00 0.00 99 1000.0
20260509094801 86 0 0.0 0.0 0.00 0.00 0.00 99 1000.0
20260509093737 85 0 0.0 0.0 0.00 0.00 0.00 99 1001.0
20260509092713 84 0 0.0 0.0 0.00 0.00 0.00 99 1001.0
20260509091649 85 0 0.0 0.0 0.00 0.00 0.00 83 1004.0
20260509090625 91 0 0.0 0.0 0.00 0.00 0.00 69 1002.0
20260509085601 94 0 0.0 0.0 0.00 0.00 0.00 65 1000.0
20260509084539 95 0 0.0 0.0 0.00 0.00 0.00 61 999.0
20260509083514 96 0 0.0 0.0 0.00 0.00 0.00 58 997.0
20260509082449 100 0 0.0 0.0 0.00 0.00 0.00 49 991.0
20260509081425 99 0 0.0 0.0 0.00 0.00 0.00 50 992.0
20260509080401 98 0 0.0 0.0 0.00 0.00 0.00 52 993.0
20260509075337 100 0 0.0 0.0 0.00 0.00 0.00 49 991.0
20260509074313 100 0 0.0 0.0 0.00 0.00 0.00 51 992.0
20260509073249 99 0 0.0 0.0 0.00 0.00 0.00 53 993.0
20260509072225 99 0 0.0 0.0 0.00 0.00 0.00 54 994.0
20260509071201 99 0 0.0 0.0 0.00 0.00 0.00 55 995.0
20260509070137 98 0 0.0 0.0 0.00 0.00 0.00 56 996.0
20260509065114 98 0 0.0 0.0 0.00 0.00 0.00 56 995.0
20260509064049 98 0 0.0 0.0 0.00 0.00 0.00 56 996.0
20260509063026 98 0 0.0 0.0 0.00 0.00 0.00 57 997.0
20260509062001 98 0 0.0 0.0 0.00 0.00 0.00 58 998.0
20260509060937 97 0 0.0 0.0 0.00 0.00 0.00 56 996.0
20260509055913 97 0 0.0 0.0 0.00 0.00 0.00 62 999.0
20260509054849 96 0 0.0 0.0 0.00 0.00 0.00 63 1000.0
20260509053825 96 0 0.0 0.0 0.00 0.00 0.00 64 1001.0
20260509052801 96 0 0.0 0.0 0.00 0.00 0.00 62 999.0
20260509051737 95 0 0.0 0.0 0.00 0.00 0.00 65 1002.0
20260509050713 94 0 0.0 0.0 0.00 0.00 0.00 64 1001.0
20260509045649 95 0 0.0 0.0 0.00 0.00 0.00 64 1000.0
20260509044625 94 0 0.0 0.0 0.00 0.00 0.00 67 1001.0
20260509043601 94 0 0.0 0.0 0.00 0.00 0.00 68 1002.0
20260509042537 94 0 0.0 0.0 0.00 0.00 0.00 71 1003.0
20260509041513 93 0 0.0 0.0 0.00 0.00 0.00 71 1003.0
20260509040449 93 0 0.0 0.0 0.00 0.00 0.00 69 1003.0
20260509035425 92 0 0.0 0.0 0.00 0.00 0.00 68 1002.0
20260509034401 92 0 0.0 0.0 0.00 0.00 0.00 73 1003.0
20260509033337 92 0 0.0 0.0 0.00 0.00 0.00 73 1003.0
20260509032313 91 0 0.0 0.0 0.00 0.00 0.00 79 1004.0
20260509031249 91 0 0.0 0.0 0.00 0.00 0.00 85 1005.0
20260509030226 89 0 0.0 0.0 0.00 0.00 0.00 87 1005.0
20260509025202 90 0 0.0 0.0 0.00 0.00 0.00 90 1006.0
20260509024138 90 0 0.0 0.0 0.00 0.00 0.00 89 1005.0
20260509023114 89 0 0.0 0.0 0.00 0.00 0.00 90 1006.0
20260509022050 89 0 0.0 0.0 0.00 0.00 0.00 89 1005.0
20260509021026 89 0 0.0 0.0 0.00 0.00 0.00 90 1006.0
20260509020002 89 0 0.0 0.0 0.00 0.00 0.00 92 1005.0
20260509014938 88 0 0.0 0.0 0.00 0.00 0.00 99 1006.0
20260509013914 87 0 0.0 0.0 0.00 0.00 0.00 99 1006.0
20260509012850 86 0 0.0 0.0 0.00 0.00 0.00 99 1006.0
20260509011826 86 0 0.0 0.0 0.00 0.00 0.00 99 1006.0
20260509010802 84 0 0.0 0.0 0.00 0.00 0.00 99 1006.0
20260509005737 83 0 0.0 0.0 0.00 0.00 0.00 99 1006.0
20260509004714 83 0 0.0 0.0 0.00 0.00 0.00 99 1006.0
20260509003650 83 0 0.0 0.0 0.00 0.00 0.00 99 1006.0
20260509002626 82 0 0.0 0.0 0.00 0.00 0.00 99 1006.0
20260509001602 82 0 0.0 0.0 0.00 0.00 0.00 99 1006.0
20260509000537 82 0 0.0 0.0 0.00 0.00 0.00 99 1006.0
20260508235514 81 0 0.0 0.0 0.00 0.00 0.00 99 1006.0
20260508234450 80 0 0.0 0.0 0.00 0.00 0.00 99 1006.0
20260508233425 80 0 0.0 0.0 0.00 0.00 0.00 99 1006.0
20260508232402 80 0 0.0 0.0 0.00 0.00 0.00 99 1005.0
20260508231338 79 0 0.0 0.0 0.00 0.00 0.00 99 1005.0
20260508230314 79 0 0.0 0.0 0.00 0.00 0.00 99 1005.0
20260508225249 79 0 0.0 0.0 0.00 0.00 0.00 99 1005.0
20260508224225 79 0 0.0 0.0 0.00 0.00 0.00 99 1005.0
20260508223202 79 0 0.0 0.0 0.00 0.00 0.00 99 1005.0
20260508222137 79 0 0.0 0.0 0.00 0.00 0.00 99 1005.0
20260508221114 79 0 0.0 0.0 0.00 0.00 0.00 99 1005.0
20260508220049 79 0 0.0 0.0 0.00 0.00 0.00 99 1004.0
20260508215025 79 0 0.0 0.0 0.00 0.00 0.00 99 1004.0
20260508214001 79 0 0.0 0.0 0.00 0.00 0.00 99 1004.0
20260508212937 79 0 0.0 0.0 0.00 0.00 0.00 99 1004.0
20260508211914 79 0 0.0 0.0 0.00 0.00 0.00 99 1004.0
20260508210849 79 0 0.0 0.0 0.00 0.00 0.00 99 1004.0
20260508205825 79 0 0.0 0.0 0.00 0.00 0.00 99 1004.0
20260508204801 79 0 0.0 0.0 0.00 0.00 0.00 99 1004.0
20260508203737 79 0 0.0 0.0 0.00 0.00 0.00 99 1003.0
20260508202714 79 0 0.0 0.0 0.00 0.00 0.00 99 1004.0
20260508201649 79 0 0.0 0.0 0.00 0.00 0.00 99 1004.0
20260508200625 79 0 0.0 0.0 0.00 0.00 0.00 99 1004.0
20260508195602 79 0 0.0 0.0 0.00 0.00 0.00 99 1004.0
20260508194537 79 0 0.0 0.0 0.00 0.00 0.00 99 1004.0
20260508193514 79 0 0.0 0.0 0.00 0.00 0.00 99 1004.0
20260508192449 79 0 0.0 0.0 0.00 0.00 0.00 99 1004.0
20260508191426 79 0 0.0 0.0 0.00 0.00 0.00 99 1004.0
20260508190401 79 0 0.0 0.0 0.00 0.00 0.00 99 1004.0
20260508185337 79 0 0.0 0.0 0.00 0.00 0.00 99 1004.0
20260508184314 79 0 0.0 0.0 0.00 0.00 0.00 99 1004.0
20260508183249 79 0 0.0 0.0 0.00 0.00 0.00 99 1004.0
20260508182225 79 0 0.0 0.0 0.00 0.00 0.00 99 1004.0
20260508181201 79 0 0.0 0.0 0.00 0.00 0.00 99 1004.0
20260508180137 79 0 0.0 0.0 0.00 0.00 0.00 99 1005.0
20260508175127 79 0 0.0 0.0 0.00 0.00 0.00 99 1005.0
20260508174049 79 0 0.0 0.0 0.00 0.00 0.00 99 1005.0
20260508173025 79 0 0.0 0.0 0.00 0.00 0.00 99 1005.0
20260508172001 79 0 0.0 0.0 0.00 0.00 0.00 99 1005.0
20260508170937 79 0 0.0 0.0 0.00 0.00 0.00 99 1005.0
20260508165913 80 0 0.0 0.0 0.00 0.00 0.00 99 1005.0
20260508164850 79 0 0.0 0.0 0.00 0.00 0.00 99 1005.0
20260508163826 79 0 0.0 0.0 0.00 0.00 0.00 99 1005.0
20260508162802 80 0 0.0 0.0 0.00 0.00 0.00 99 1005.0